Weather History for Missoula, MT

Change the Weather History Date:

Saturday, November 13, 2010

  Actual Average Record
Temperature  
Mean Temperature 37 °F 34 °F  
Max Temperature 39 °F 43 °F 66 °F (1999)
Min Temperature 34 °F 26 °F -10 °F (1959)
Degree Days  
Heating Degree Days 28 31  
Month to date heating degree days 341 367  
Since 1 July heating degree days 1178 1309  
Cooling Degree Days 0 0  
Month to date cooling degree days 0 0  
Year to date cooling degree days 244 332  
Moisture  
Dew Point 27 °F    
Average Humidity 65    
Maximum Humidity 76    
Minimum Humidity 54    
Precipitation  
Precipitation T in 0.04 in 0.44 in (1914)
Month to date precipitation 0.10 0.42  
Year to date precipitation 13.48 12.50  
Snow  
Snow 0.00 in - - ()
Month to date snowfall 0.0  
Year to date snowfall 8.8  
Since 1 July snowfall T  
Snow Depth 0.00 in    
Sea Level Pressure  
Sea Level Pressure 30.43 in    
Wind  
Wind Speed 5 mph (NW)    
Max Wind Speed 8 mph    
Max Gust Speed 12 mph    
Visibility 10 miles    
Events      
T = Trace of Precipitation, MM = Missing Value Source: NWS Daily Summary

Daily Weather History Graph

Daily Weather History Graph

Search for Another Location

Airport:

Trip Planner

Search our weather history database for the weather conditions in past years. The results will help you decide how hot, cold, wet, or windy it might be!

Date:

Astronomy

Nov. 13, 2010 Rise Set
Actual Time 7:36 AM MST 5:04 PM MST
Civil Twilight 7:03 AM MST 5:37 PM MST
Nautical Twilight 6:26 AM MST 6:13 PM MST
Astronomical Twilight 5:51 AM MST 6:49 PM MST
Moon 1:26 PM MST (11/13) No Moon Set
Length of Visible Light 10h 33m
Length of Day
9h 27m
Waxing Crescent, 51% of the Moon is Illuminated
Nov 13
Waxing Crescent
Nov 21
Full
Nov 28
Last Quarter
Dec 5
New
Dec 13
First Quarter

Hourly Weather History & Observations

Time (MST) Temp. Windchill Dew Point Humidity Pressure Visibility Wind Dir Wind Speed Gust Speed Precip Events Conditions
12:53 AM 36.0 °F 29.6 °F 23.0 °F 59% 30.58 in 10.0 mi NW 8.1 mph - N/A   Overcast
1:53 AM 35.1 °F 30.1 °F 23.0 °F 61% 30.59 in 10.0 mi NW 5.8 mph - N/A   Overcast
2:53 AM 36.0 °F 32.1 °F 24.1 °F 62% 30.57 in 10.0 mi NNW 4.6 mph - N/A   Overcast
3:53 AM 36.0 °F 29.6 °F 24.1 °F 62% 30.56 in 10.0 mi NNW 8.1 mph - N/A   Overcast
4:53 AM 35.6 °F 28.0 °F 24.8 °F 65% 30.48 in 10.0 mi NW 10.4 mph - N/A   Overcast
5:53 AM 35.1 °F 28.6 °F 24.1 °F 64% 30.55 in 10.0 mi NW 8.1 mph - N/A   Overcast
6:53 AM 36.0 °F 31.1 °F 24.1 °F 62% 30.53 in 10.0 mi NW 5.8 mph - N/A   Overcast
7:53 AM 35.1 °F 31.0 °F 24.1 °F 64% 30.53 in 10.0 mi NW 4.6 mph - N/A   Overcast
8:53 AM 37.0 °F - 25.0 °F 62% 30.52 in 10.0 mi Calm Calm - N/A   Overcast
9:53 AM 37.0 °F - 25.0 °F 62% 30.49 in 10.0 mi Calm Calm - N/A   Overcast
10:53 AM 39.0 °F 36.8 °F 24.1 °F 55% 30.46 in 10.0 mi WNW 3.5 mph - N/A   Overcast
11:53 AM 37.9 °F 33.5 °F 26.1 °F 62% 30.45 in 10.0 mi NNW 5.8 mph - N/A   Overcast
12:53 PM 37.9 °F 32.7 °F 27.0 °F 65% 30.42 in 10.0 mi NNW 6.9 mph - N/A   Overcast
1:53 PM 37.9 °F 34.4 °F 28.0 °F 68% 30.40 in 10.0 mi NW 4.6 mph - 0.00 in   Overcast
2:00 PM 37.4 °F 33.8 °F 28.4 °F 70% 30.32 in 10.0 mi NW 4.6 mph - N/A   Overcast
2:53 PM 37.0 °F 32.4 °F 28.9 °F 73% 30.38 in 10.0 mi WNW 5.8 mph - N/A   Overcast
3:04 PM 37.4 °F 32.1 °F 28.4 °F 70% 30.31 in 10.0 mi WNW 6.9 mph - N/A   Overcast
3:53 PM 37.0 °F 32.4 °F 30.0 °F 76% 30.38 in 10.0 mi WNW 5.8 mph - N/A   Overcast
4:53 PM 37.0 °F 33.3 °F 28.9 °F 73% 30.37 in 10.0 mi NW 4.6 mph - N/A   Overcast
5:53 PM 36.0 °F 33.3 °F 28.9 °F 76% 30.36 in 10.0 mi WSW 3.5 mph - N/A   Overcast
6:53 PM 36.0 °F 31.1 °F 28.9 °F 76% 30.36 in 10.0 mi NW 5.8 mph - N/A   Overcast
7:53 PM 36.0 °F 31.1 °F 28.9 °F 76% 30.36 in 10.0 mi NW 5.8 mph - N/A   Overcast
8:53 PM 37.0 °F 33.3 °F 28.0 °F 70% 30.34 in 10.0 mi NNW 4.6 mph - N/A   Overcast
9:53 PM 36.0 °F 32.1 °F 28.9 °F 76% 30.32 in 10.0 mi WSW 4.6 mph - N/A   Overcast
10:53 PM 37.0 °F 34.5 °F 28.0 °F 70% 30.31 in 10.0 mi NNW 3.5 mph - N/A   Overcast
11:53 PM 37.9 °F 32.1 °F 27.0 °F 65% 30.30 in 10.0 mi NNW 8.1 mph - N/A   Overcast